This demonstration page uses our WeatherBlox Daily Observations layout. Learn more.

Left ArrowRight Arrow

Hourly Observations for February 26, 2021

Temp ( °F °C ) Dew Point ( °F °C ) Humidity (%) Winds ( mph kmh ) Pressure ( in mb ) Visibility ( mi km ) Precip ( " mm )
12:15 am 00:15 Clear 32 0 22 -5.5 67 67 SSW 13 20 30.15 1021 10 16.0934 0 0
12:35 am 00:35 Clear 32 -0.1 22 -5.6 67 67 SSW 14 22 30.14 1021 10 16.0934 0 0
12:55 am 00:55 Clear 32 -0.2 22 -5.8 66 66 S 15 24 30.14 1021 10 16.0934 0 0
1:15 am 01:15 Clear 31 -0.4 21 -6 66 66 SSW 15 24 30.13 1020 10 16.0934 0 0
1:35 am 01:35 Clear 31 -0.4 21 -6 66 66 SSW 15 24 30.12 1020 10 16.0934 0 0
1:55 am 01:55 Clear 31 -0.5 21 -6 67 67 SSW 13 20 30.11 1020 10 16.0934 0 0
2:15 am 02:15 Clear 31 -0.6 21 -6.2 66 66 SSW 13 20 30.1 1019 10 16.0934 0 0
2:35 am 02:35 Clear 30 -1.2 21 -6.1 70 70 S 9 15 30.09 1019 10 16.0934 0 0
2:55 am 02:55 Clear 30 -1.2 21 -6.2 69 69 S 9 15 30.09 1019 10 16.0934 0 0
3:15 am 03:15 Clear 29 -1.5 21 -6.3 70 70 S 9 15 30.07 1018 10 16.0934 0 0
3:35 am 03:35 Clear 29 -1.6 21 -6.2 71 71 S 9 15 30.06 1018 10 16.0934 0 0
3:55 am 03:55 Clear 28 -2 21 -6.1 74 74 SSW 10 17 30.05 1018 10 16.0934 0 0
4:15 am 04:15 Clear 28 -2 21 -6.1 74 74 SSW 14 22 30.05 1018 10 16.0934 0 0
4:35 am 04:35 Clear 29 -1.6 21 -6.1 72 72 S 14 22 30.04 1017 10 16.0934 0 0
4:55 am 04:55 Clear 29 -1.6 21 -6 72 72 SSW 12 19 30.04 1017 10 16.0934 0 0
5:15 am 05:15 Clear 28 -2 21 -6 74 74 SSW 10 17 30.04 1017 10 16.0934 0 0
5:35 am 05:35 Clear 28 -2.3 21 -6 76 76 SSW 8 13 30.05 1017 10 16.0934 0 0
5:55 am 05:55 Clear 28 -2.3 21 -6 76 76 S 12 19 30.04 1017 10 16.0934 0 0
6:15 am 06:15 Clear 28 -2.3 21 -6 76 76 S 14 22 30.02 1016 10 16.0934 0 0
6:35 am 06:35 Clear 27 -2.7 21 -6.1 78 78 S 10 17 30.02 1017 10 16.0934 0 0
6:55 am 06:55 Clear 26 -3.1 21 -6.1 80 80 S 6 9 30.02 1017 10 16.0934 0 0
7:15 am 07:15 Sunny 26 -3.6 20 -6.5 81 81 SSW 3 6 30.03 1017 10 16.0934 0 0
7:35 am 07:35 Sunny 25 -3.7 21 -6.2 83 83 S 5 7 30.03 1017 10 16.0934 0 0
7:55 am 07:55 Sunny 27 -2.7 22 -5.7 80 80 S 7 11 30.02 1017 10 16.0934 0 0
8:15 am 08:15 Sunny 29 -1.7 22 -5.3 77 77 S 9 15 30 1016 10 16.0934 0 0
8:35 am 08:35 Sunny 29 -1.5 23 -5 77 77 SSW 12 19 30 1016 10 16.0934 0 0
8:55 am 08:55 Sunny 31 -0.4 24 -4.3 75 75 SSW 5 7 30 1016 10 16.0934 0 0
9:15 am 09:15 Sunny 32 0.2 24 -4.5 71 71 SSW 13 20 29.97 1015 10 16.0934 0 0
9:35 am 09:35 Sunny 32 0.2 24 -4.6 70 70 SSW 10 17 29.97 1015 10 16.0934 0 0
9:55 am 09:55 Partly Cloudy 33 0.6 25 -4 72 72 SSW 12 19 29.96 1015 10 16.0934 0 0
10:15 am 10:15 Mostly Cloudy 35 1.4 25 -4.1 67 67 SW 7 11 29.95 1014 10 16.0934 0 0
10:35 am 10:35 Partly Cloudy 35 1.6 26 -3.6 69 69 SW 9 15 29.94 1014 10 16.0934 0 0
10:55 am 10:55 Sunny 35 1.5 25 -3.7 69 69 SW 9 15 29.93 1014 10 16.0934 0 0
11:15 am 11:15 Mostly Cloudy 35 1.9 26 -3.2 69 69 SW 8 13 29.93 1013 10 16.0934 0 0
11:35 am 11:35 Cloudy 36 2.2 26 -3.2 68 68 SSW 9 15 29.9 1013 10 16.0934 0 0
11:55 am 11:55 Cloudy 37 2.6 26 -3.2 66 66 SW 7 11 29.91 1013 10 16.0934 0 0
12:15 pm 12:15 Mostly Cloudy 38 3.5 28 -2.5 65 65 SW 12 19 29.89 1012 10 16.0934 0 0
12:35 pm 12:35 Mostly Cloudy 40 4.5 28 -2 63 63 SW 14 22 29.86 1011 10 16.0934 0 0
12:55 pm 12:55 Cloudy 41 4.8 29 -1.7 63 63 SW 12 19 29.85 1011 10 16.0934 0 0
1:15 pm 13:15 Mostly Cloudy 41 5 29 -1.9 61 61 SW 13 20 29.83 1010 10 16.0934 0 0
1:35 pm 13:35 Mostly Cloudy 43 6 30 -1.3 60 60 SW 12 19 29.8 1009 10 16.0934 0 0
1:55 pm 13:55 Mostly Cloudy 44 6.9 29 -1.5 55 55 SW 14 22 29.78 1008 10 16.0934 0 0
2:15 pm 14:15 Mostly Cloudy 45 7 29 -1.5 55 55 SW 15 24 29.77 1008 10 16.0934 0 0
2:35 pm 14:35 Cloudy 46 7.6 29 -1.4 53 53 SW 14 22 29.76 1008 10 16.0934 0 0
2:55 pm 14:55 Cloudy 47 8.2 30 -1.2 52 52 SW 10 17 29.75 1007 10 16.0934 0 0
3:15 pm 15:15 Partly Cloudy 49 9.5 28 -2 45 45 WSW 13 20 29.74 1007 10 16.0934 0 0
3:35 pm 15:35 Sunny 50 9.8 24 -4.7 36 36 W 9 15 29.72 1007 10 16.0934 0 0
3:55 pm 15:55 Sunny 50 9.8 26 -3.6 39 39 SSW 13 20 29.71 1006 10 16.0934 0 0
4:15 pm 16:15 Sunny 50 10 26 -3.4 39 39 SW 8 13 29.71 1006 10 16.0934 0 0
4:35 pm 16:35 Sunny 50 9.9 27 -3 41 41 SSW 8 13 29.71 1006 10 16.0934 0 0
4:55 pm 16:55 Sunny 50 9.8 26 -3.4 40 40 WSW 9 15 29.71 1006 10 16.0934 0 0
5:15 pm 17:15 Sunny 49 9.7 26 -3.5 40 40 SSW 6 9 29.71 1006 10 16.0934 0 0
5:35 pm 17:35 Sunny 49 9.2 26 -3.1 42 42 SSW 8 13 29.71 1006 10 16.0934 0 0
5:55 pm 17:55 Sunny 46 7.7 26 -3.3 46 46 SW 5 7 29.73 1007 10 16.0934 0 0
6:15 pm 18:15 Mostly Cloudy 45 7.1 26 -3.6 47 47 SSW 8 13 29.75 1007 10 16.0934 0 0
6:35 pm 18:35 Cloudy 42 5.7 26 -3.1 54 54 SSW 7 11 29.76 1008 10 16.0934 0 0
6:55 pm 18:55 Cloudy 41 5 26 -3.3 55 55 SW 5 7 29.78 1008 10 16.0934 0 0
7:15 pm 19:15 Cloudy 42 5.3 25 -4 51 51 SW 7 11 29.79 1009 10 16.0934 0 0
7:35 pm 19:35 Cloudy 47 8.2 22 -5.7 37 37 W 8 13 29.78 1008 10 16.0934 0 0
7:55 pm 19:55 Mostly Cloudy 41 5.1 25 -4 52 52 W 8 13 29.82 1010 10 16.0934 0 0
8:15 pm 20:15 Partly Cloudy 42 5.5 24 -4.4 49 49 WSW 8 13 29.81 1010 10 16.0934 0 0
8:35 pm 20:35 Partly Cloudy 41 5.1 23 -4.9 49 49 W 8 13 29.83 1010 10 16.0934 0 0
8:55 pm 20:55 Clear 39 3.9 23 -5.1 52 52 WSW 8 13 29.84 1010 10 16.0934 0 0
9:15 pm 21:15 Clear 41 4.8 20 -6.7 43 43 WSW 8 13 29.84 1010 10 16.0934 0 0
9:35 pm 21:35 Clear 38 3.3 23 -5.1 55 55 WSW 6 9 29.87 1012 10 16.0934 0 0
9:55 pm 21:55 Clear 39 4 20 -6.4 47 47 WSW 6 9 29.87 1011 10 16.0934 0 0
10:15 pm 22:15 Clear 38 3.1 21 -6.1 51 51 WSW 5 7 29.88 1012 10 16.0934 0 0
10:35 pm 22:35 Clear 38 3.3 19 -7 47 47 WSW 6 9 29.88 1012 10 16.0934 0 0
10:55 pm 22:55 Clear 38 3.4 19 -7 47 47 WSW 6 9 29.88 1012 10 16.0934 0 0
11:15 pm 23:15 Clear 37 3 20 -6.6 50 50 SW 6 9 29.89 1012 10 16.0934 0 0
11:35 pm 23:35 Clear 38 3.2 20 -6.7 49 49 SW 5 7 29.88 1012 10 16.0934 0 0
11:55 pm 23:55 Clear 39 4 18 -7.8 42 42 W 8 13 29.86 1011 10 16.0934 0 0

Powered by AerisWeather